sat.trackr.live / text

‹ back to catalog

STARLINK-30526

NORAD 58006 · 2023-153R

PAYLOAD ACTIVE UNKNOWN

§ Identity

Operator
Country
US
Launch date
2023-10-05
Launch site
AFETR
Launch vehicle
Mass (kg)
RCS (m²)

Purposes: comms

External: N2YO · Heavens-Above · Gunter

§ Orbital elements

Epoch: 2026-09-20T08:59:26.728224Z

Period
93.68 min
Inclination
43.0017°
Eccentricity
0.0001448
Mean motion
15.37149508 rev/d
Perigee alt
453.6 km
Apogee alt
455.5 km
Semi-major
6,832.7 km
B*
5.5371e-5
RAAN
17.0113°
Arg perigee
272.4064°
Mean anomaly
87.6625°
Rev number
16,502

§ Raw data

STARLINK-305261 58006U 23153R   26263.37461491  .00001768  00000+0  55371-4 0  99932 58006  43.0017  17.0113 0001448 272.4064  87.6625 15.37149508165022

JSON: /api/v1/satellites/58006 · /tle

For live sub-satellite position, see the globe view (requires WebGL).

§ Visibility from observer

Set your observer location to see the next 7 days of passes ≥ 10°. The values pass through the URL so the page stays shareable.

No JS? Fill the form by hand. The geolocation button needs JavaScript.